Wind_Speed
23 23 24 25 26 27 28 29 30 31 31 32 32 32 33 33 33 34 35 35 36 37 38 38 39 40 41 41 42 42 42 42 42 43 44 43 43 43 43 43 45 45 46
23 24 25 27 28 29 30 31 32 33 33 33 33 33 34 34 35 35 36 37 37 38 39 39 39 40 41 42 43 43 44 44 44 44 45 45 44 44 44 44 46 47 47
23 25 27 28 30 31 33 33 34 35 35 35 35 35 35 35 36 37 37 37 37 37 38 39 39 40 41 42 43 44 45 45 45 45 45 47 46 45 44 45 46 48 48
26 28 29 31 33 34 35 36 36 37 37 36 36 36 36 37 37 36 36 36 36 36 37 37 38 39 40 42 43 45 46 46 46 46 46 47 48 47 46 45 46 47 49
28 30 32 34 35 36 37 38 38 38 38 38 37 37 37 37 36 36 36 36 36 36 37 37 38 39 40 41 43 44 46 47 47 47 47 48 48 48 48 47 47 48 49
30 32 34 36 37 38 39 40 40 40 40 39 38 38 37 36 36 36 36 36 36 36 37 37 38 38 39 41 42 44 46 47 48 48 48 48 49 49 50 49 48 49 50
32 34 36 38 39 40 41 41 42 42 41 40 39 38 37 36 36 35 36 36 35 36 36 37 38 39 40 41 43 44 46 48 49 50 50 50 50 50 50 50 50 51 51
34 36 38 40 41 41 42 43 43 42 41 40 39 38 37 36 36 36 36 35 35 36 36 36 37 38 40 41 42 44 46 48 49 50 51 52 52 51 51 51 50 49 51
36 38 40 41 42 42 43 43 43 42 41 40 38 37 36 36 36 35 35 35 34 34 35 36 36 37 39 40 41 43 45 47 49 50 51 53 54 53 51 52 51 50 50
37 39 41 42 43 44 44 44 43 42 41 39 37 36 37 36 35 35 34 34 34 34 34 35 35 36 36 37 38 40 43 45 48 50 51 53 54 55 54 53 53 52 51
39 41 43 44 45 45 45 44 43 42 40 38 37 37 36 35 34 34 33 33 33 32 32 33 34 33 33 34 36 37 40 44 46 48 50 51 53 55 55 55 54 53 53
41 43 44 45 45 45 44 44 43 41 39 37 37 36 35 34 33 32 32 32 31 30 30 31 30 30 30 31 33 35 38 41 44 46 48 50 51 53 55 56 56 56 55
43 45 46 47 46 45 45 44 42 40 39 37 36 35 34 33 32 32 32 31 30 29 28 27 26 26 26 27 29 32 35 38 41 44 46 48 50 51 54 54 55 57 56
45 46 47 47 47 45 44 43 41 40 38 37 36 35 33 32 31 31 30 29 27 26 25 23 22 22 22 23 26 28 31 35 38 41 44 47 48 49 51 52 54 56 56
46 47 48 48 47 45 44 42 41 39 38 36 35 34 32 31 31 30 29 27 26 24 22 20 18 18 17 18 21 24 27 31 35 38 41 44 46 48 50 51 52 54 55
48 48 49 48 46 44 43 41 40 39 37 35 33 33 31 31 30 29 27 26 24 22 20 17 16 15 14 14 16 19 23 27 31 35 38 40 43 45 48 50 51 52 53
49 49 49 47 45 43 42 40 39 38 36 34 33 32 30 30 28 27 26 24 22 19 17 15 14 13 12 12 13 15 19 23 27 31 35 38 41 42 45 48 50 50 50
49 48 48 46 44 42 41 39 38 36 35 33 32 31 30 28 27 25 24 23 21 19 16 14 12 11 10 9 10 12 15 19 23 27 32 35 38 40 42 45 48 49 49
48 48 47 45 43 41 40 38 37 35 34 32 31 30 29 27 26 24 23 22 20 18 16 14 12 11 10 9 8 9 13 17 20 24 28 31 34 38 41 43 45 46 48
48 47 46 44 42 40 39 37 36 34 33 31 29 28 27 26 24 23 22 21 20 18 16 14 12 10 9 8 7 9 11 15 19 21 25 29 30 34 37 40 43 45 47
47 46 45 42 40 39 37 36 34 32 31 29 28 26 25 24 22 22 22 21 19 17 16 13 11 9 8 7 7 8 10 14 17 20 23 26 28 30 33 36 40 43 45
46 45 43 41 38 37 36 34 32 30 29 28 26 25 24 23 22 21 21 19 18 16 14 12 11 9 8 6 7 8 10 13 15 18 21 24 27 28 31 33 37 40 42
45 43 41 39 37 35 34 32 30 28 27 26 24 23 22 22 21 20 19 17 16 15 13 11 9 8 7 6 6 8 10 12 15 17 19 21 24 26 28 31 33 36 40
44 42 40 37 36 34 32 29 28 26 25 24 23 21 21 20 19 19 17 16 14 13 12 10 9 8 7 6 6 7 9 11 14 16 18 20 22 24 26 28 31 33 36
43 40 38 36 34 32 29 27 25 23 22 22 21 20 19 18 17 17 15 13 12 12 10 9 8 8 6 5 5 7 9 11 13 15 18 19 21 24 25 26 29 32 34
40 38 35 33 31 29 26 24 22 21 20 20 19 18 17 16 15 15 14 12 11 11 9 8 8 7 6 4 4 6 7 10 12 14 16 18 20 22 24 26 28 30 32
Wind_Direction
321 321 320 320 319 318 316 315 313 311 308 306 302 299 296 294 291 288 286 283 281 277 273 269 266 263 259 256 252 249 246 243 240 238 236 235 234 232 229 226 223 222 221
324 324 324 324 323 322 320 318 316 314 311 307 304 300 297 295 292 289 287 285 281 278 274 270 266 263 259 255 251 248 245 243 240 237 235 234 234 232 229 226 224 222 221
326 326 326 325 325 324 323 321 319 316 313 309 306 302 299 296 294 292 289 287 283 279 275 271 267 263 259 255 251 248 245 242 240 237 235 234 233 233 230 228 226 223 221
328 327 327 326 325 325 324 323 321 318 315 311 308 305 302 299 296 293 291 288 284 280 276 271 267 264 260 255 251 248 245 242 239 237 234 233 232 231 230 230 227 224 221
329 328 327 327 326 325 324 323 321 319 316 313 309 306 304 301 298 295 293 290 286 281 277 272 268 264 260 256 252 249 245 242 239 236 234 232 230 229 228 229 228 226 224
329 329 328 328 327 325 324 323 322 320 318 314 311 308 306 303 299 297 294 291 288 283 279 274 269 266 261 257 253 249 245 241 239 235 232 230 229 227 226 226 227 225 222
329 330 330 329 328 326 325 324 323 321 319 316 313 311 308 304 301 298 296 293 290 286 281 277 271 267 263 259 254 250 245 241 238 235 232 230 228 226 225 224 225 224 222
328 329 329 329 328 328 326 325 323 322 320 318 315 313 310 307 304 301 298 295 292 288 283 279 273 268 264 260 255 250 245 240 237 235 232 230 228 226 224 223 223 224 223
328 329 329 329 329 328 327 325 324 323 321 319 317 315 313 310 307 303 301 298 295 290 285 280 276 271 265 259 254 249 244 239 236 233 231 229 228 226 224 223 223 223 221
328 328 329 329 329 329 328 326 325 324 322 320 318 316 314 312 309 306 303 301 297 293 288 282 278 273 267 260 253 248 242 238 235 232 230 229 227 226 224 223 222 223 222
327 328 328 328 328 329 328 327 326 325 323 321 320 318 316 314 312 309 307 304 300 296 292 287 282 275 267 259 252 247 241 236 233 232 230 228 227 226 225 224 223 222 221
327 327 328 328 328 329 328 327 327 325 324 322 321 320 319 318 315 313 310 308 304 299 296 292 286 277 267 259 252 246 241 237 233 230 229 227 226 225 225 224 223 222 221
327 327 328 328 328 328 328 328 327 326 325 324 323 322 322 320 318 315 314 312 309 305 301 295 288 280 269 260 252 246 241 235 231 228 226 226 224 223 223 223 222 222 222
326 327 327 327 328 328 328 328 328 327 326 325 324 324 323 323 322 320 318 316 313 310 306 300 293 284 273 262 253 246 240 234 230 228 226 225 223 222 222 222 221 221 221
325 326 326 327 327 328 328 329 328 328 327 326 326 326 325 325 324 324 322 320 318 315 311 304 298 291 278 265 253 245 239 233 229 226 225 222 222 221 221 221 220 221 222
324 325 325 326 326 327 328 328 328 328 327 327 327 327 327 327 327 327 327 325 322 319 316 310 303 297 284 270 256 245 238 231 226 223 221 219 219 220 220 221 220 220 221
322 323 324 324 324 325 327 328 328 328 327 327 327 328 328 329 329 329 330 330 328 326 323 317 310 302 291 278 261 245 234 227 224 220 219 218 217 217 218 219 219 220 221
319 320 322 323 323 324 325 326 327 327 327 327 328 329 329 330 330 331 331 332 331 329 326 323 316 308 300 286 265 242 230 223 220 218 217 216 215 214 215 217 218 218 219
317 319 320 320 321 321 323 325 326 326 326 326 326 328 329 330 331 332 331 333 332 331 328 322 316 309 300 284 267 243 228 219 217 216 213 212 213 214 215 215 216 216 216
316 317 318 317 318 319 321 323 324 324 325 325 325 326 328 330 331 331 332 332 331 330 329 324 315 308 301 282 257 239 226 218 216 214 210 208 209 211 213 214 215 215 215
313 314 315 315 315 316 318 320 321 321 323 324 323 325 327 328 330 331 332 332 331 329 327 326 319 307 294 278 252 234 222 213 212 213 211 210 210 210 210 212 213 214 214
311 312 312 312 313 314 316 317 318 319 321 322 321 322 326 327 328 329 331 332 331 331 331 326 322 314 297 276 246 229 220 212 210 209 210 210 208 209 210 211 212 212 211
308 309 309 309 310 312 313 314 315 316 318 320 319 320 323 325 326 327 328 329 331 331 332 327 319 313 304 282 254 230 218 214 211 209 207 207 207 208 208 208 209 211 211
305 305 305 306 307 308 309 311 312 313 316 317 318 318 320 323 325 326 326 326 327 329 330 328 323 314 302 285 261 236 221 213 209 207 204 204 205 204 204 205 207 207 207
301 301 301 302 303 304 305 307 309 311 313 315 316 317 319 321 324 327 327 325 325 327 328 327 326 320 311 286 260 242 225 214 207 203 201 201 202 202 202 204 203 204 205
297 297 298 298 298 299 300 303 305 306 309 312 314 317 318 319 324 327 330 328 325 325 324 319 318 316 311 296 263 244 227 214 206 202 199 198 199 200 200 201 202 203 203
Height
5817 5813 5809 5804 5800 5796 5791 5786 5781 5776 5771 5767 5763 5758 5755 5751 5748 5745 5742 5740 5738 5736 5735 5735 5735 5735 5736 5738 5740 5743 5746 5749 5754 5757 5760 5764 5769 5773 5778 5783 5789 5794 5801
5812 5808 5803 5799 5794 5789 5784 5779 5774 5768 5763 5758 5754 5749 5745 5741 5738 5734 5731 5728 5726 5724 5723 5722 5722 5722 5724 5725 5728 5731 5734 5737 5742 5746 5749 5754 5759 5763 5769 5774 5780 5785 5791
5807 5802 5797 5792 5787 5782 5776 5771 5765 5760 5754 5749 5744 5739 5735 5731 5727 5723 5719 5716 5714 5712 5710 5709 5709 5709 5710 5712 5714 5717 5721 5724 5729 5734 5738 5743 5748 5753 5758 5764 5769 5775 5782
5801 5797 5791 5786 5781 5775 5769 5763 5757 5751 5745 5739 5734 5729 5724 5719 5715 5711 5708 5704 5702 5699 5697 5696 5696 5696 5697 5699 5701 5704 5707 5711 5716 5721 5726 5731 5737 5742 5748 5754 5759 5765 5771
5796 5791 5785 5780 5774 5767 5761 5755 5748 5742 5735 5729 5724 5718 5713 5708 5704 5700 5696 5692 5689 5687 5685 5683 5683 5683 5683 5685 5687 5690 5694 5698 5703 5708 5714 5719 5725 5731 5738 5743 5749 5755 5761
5790 5785 5779 5773 5766 5760 5753 5746 5739 5732 5726 5719 5713 5707 5702 5697 5692 5688 5684 5680 5677 5674 5672 5670 5669 5669 5670 5671 5674 5676 5680 5684 5689 5695 5701 5707 5713 5719 5726 5732 5738 5744 5751
5784 5778 5772 5765 5758 5751 5744 5737 5730 5723 5716 5709 5703 5697 5691 5686 5681 5676 5672 5668 5665 5661 5659 5657 5656 5655 5656 5657 5659 5662 5665 5670 5675 5681 5687 5694 5701 5708 5714 5721 5727 5733 5741
5777 5771 5765 5758 5751 5743 5736 5729 5721 5714 5706 5699 5693 5686 5680 5675 5670 5665 5660 5656 5652 5649 5646 5644 5642 5641 5641 5642 5644 5647 5651 5655 5661 5667 5675 5681 5687 5694 5702 5709 5715 5722 5729
5771 5764 5757 5750 5743 5735 5727 5720 5712 5704 5697 5690 5683 5677 5670 5665 5659 5654 5649 5644 5640 5637 5633 5631 5628 5627 5627 5627 5629 5632 5636 5640 5646 5653 5660 5666 5674 5681 5689 5696 5703 5711 5718
5764 5757 5750 5743 5735 5727 5719 5711 5703 5695 5688 5681 5674 5667 5661 5655 5649 5643 5638 5633 5629 5625 5621 5618 5615 5614 5612 5613 5614 5617 5621 5626 5631 5638 5645 5653 5660 5668 5676 5684 5692 5699 5707
5757 5750 5742 5735 5727 5719 5711 5702 5694 5687 5679 5672 5665 5658 5652 5645 5639 5633 5628 5622 5617 5613 5609 5605 5602 5600 5599 5599 5601 5604 5608 5612 5618 5624 5632 5639 5647 5655 5663 5672 5680 5688 5696
5749 5742 5734 5726 5718 5710 5702 5694 5686 5678 5671 5663 5656 5650 5643 5636 5630 5624 5618 5613 5607 5602 5598 5594 5590 5588 5587 5588 5590 5592 5595 5600 5605 5612 5619 5626 5634 5642 5651 5659 5668 5676 5685
5741 5733 5726 5718 5709 5702 5693 5686 5678 5670 5662 5655 5648 5641 5634 5628 5622 5615 5610 5604 5598 5592 5588 5583 5580 5577 5576 5577 5578 5580 5583 5588 5594 5600 5607 5615 5622 5630 5639 5647 5655 5664 5673
5732 5725 5717 5709 5701 5693 5685 5677 5669 5662 5655 5647 5640 5633 5627 5620 5614 5607 5601 5595 5590 5584 5580 5575 5572 5569 5568 5567 5568 5570 5573 5578 5583 5589 5596 5603 5611 5619 5627 5636 5644 5653 5661
5723 5716 5708 5700 5692 5684 5676 5669 5662 5654 5647 5640 5633 5626 5619 5613 5607 5600 5594 5588 5583 5578 5573 5569 5566 5563 5561 5560 5561 5562 5565 5568 5573 5579 5586 5593 5601 5609 5617 5626 5634 5642 5651
5714 5707 5699 5691 5684 5676 5668 5661 5654 5647 5640 5633 5626 5620 5613 5607 5600 5594 5588 5583 5577 5572 5568 5564 5561 5558 5556 5555 5555 5555 5558 5561 5565 5570 5577 5584 5591 5599 5608 5616 5624 5633 5641
5705 5697 5690 5682 5675 5668 5661 5653 5646 5640 5633 5627 5620 5614 5608 5601 5595 5589 5584 5578 5573 5568 5563 5560 5557 5554 5552 5551 5550 5550 5552 5555 5559 5564 5570 5576 5583 5591 5599 5607 5615 5624 5632
5696 5688 5681 5674 5667 5660 5653 5646 5640 5633 5627 5620 5614 5608 5602 5596 5590 5585 5579 5574 5569 5564 5560 5557 5554 5552 5550 5548 5547 5547 5548 5551 5554 5558 5563 5569 5576 5583 5591 5598 5606 5615 5623
5686 5679 5672 5665 5659 5652 5646 5639 5633 5627 5621 5615 5609 5603 5597 5592 5586 5581 5576 5571 5566 5562 5558 5555 5552 5549 5547 5546 5545 5544 5545 5548 5550 5554 5558 5564 5570 5576 5583 5591 5598 5606 5615
5676 5670 5663 5657 5651 5644 5638 5632 5627 5621 5615 5609 5604 5598 5593 5588 5582 5577 5572 5567 5563 5559 5555 5552 5549 5547 5545 5544 5543 5543 5543 5545 5547 5550 5554 5559 5565 5570 5577 5583 5591 5598 5607
5666 5660 5654 5648 5642 5637 5631 5625 5620 5614 5609 5604 5599 5594 5589 5584 5579 5574 5569 5565 5560 5556 5553 5550 5547 5545 5543 5542 5541 5541 5541 5543 5545 5548 5551 5555 5560 5566 5571 5577 5583 5591 5598
5655 5650 5644 5639 5634 5629 5623 5618 5613 5608 5603 5599 5594 5589 5584 5580 5575 5571 5566 5562 5558 5554 5551 5548 5545 5543 5541 5540 5539 5539 5540 5541 5543 5545 5548 5552 5556 5561 5566 5571 5578 5584 5591
5645 5640 5635 5630 5625 5620 5616 5611 5607 5602 5598 5593 5589 5585 5580 5576 5572 5567 5563 5559 5555 5552 5549 5546 5543 5541 5540 5538 5538 5537 5538 5539 5540 5542 5545 5549 5553 5557 5562 5567 5573 5579 5585
5634 5630 5625 5621 5617 5613 5608 5604 5600 5596 5592 5588 5584 5580 5576 5572 5568 5564 5560 5557 5553 5550 5547 5544 5542 5540 5538 5536 5535 5535 5536 5537 5538 5540 5543 5546 5549 5553 5558 5563 5568 5574 5580
5623 5619 5615 5611 5608 5604 5601 5597 5594 5590 5587 5583 5579 5576 5572 5568 5565 5561 5557 5554 5551 5548 5545 5542 5540 5538 5536 5535 5534 5533 5534 5535 5536 5538 5540 5543 5547 5551 5555 5559 5564 5570 5576
5611 5608 5604 5601 5599 5596 5593 5590 5587 5584 5581 5578 5575 5572 5568 5565 5561 5558 5555 5552 5549 5546 5543 5541 5539 5536 5535 5534 5532 5532 5532 5533 5534 5536 5538 5541 5544 5548 5552 5557 5561 5566 5572